EUTELSAT KONNECT VHTS

Last updated on Sun Apr 12 2026 00:02:56 GMT+0000 (Coordinated Universal Time)

1 53765U 22110A 26101.14072763 .00000019 00000+0 00000+0 0 9990 2 53765 0.0592 98.9656 0003003 257.9752 255.7994 1.00270744 6169
UTC large
Height (km)
Speed (km/s)
/
Latitude / Longitude
Inclination (degrees)
Orbital Period (minutes)
Azimuth
Elevation
Range (km)
Doppler Factor

Next 0 passes for location: London (51.5072 / 0.1276)

Sorry there are no passes over London.